Wetbulb
52.84 53.69 53.74 54.12 53.58 53.29 53.19 52.80 52.46 52.63 52.84 53.21 53.35 53.38 53.67 54.00 53.99 49.36 46.45 55.64 56.91 60.49 60.88 56.83 55.60 53.60 53.38 50.42 51.49 49.93 40.56 40.72 42.99 44.25 47.00 51.07 49.86 53.32 52.80 50.61 52.91 59.35 63.44 65.61 66.32
52.38 52.73 52.70 52.89 53.35 53.79 53.46 53.12 52.71 52.62 52.34 52.32 52.77 52.87 53.12 53.58 48.96 45.24 52.77 60.35 60.94 59.90 56.81 54.20 51.28 51.87 47.57 48.21 49.07 46.75 41.95 43.98 48.20 49.54 48.58 50.92 48.95 51.34 49.38 50.22 58.08 62.25 65.41 66.62 66.01
51.72 51.97 51.99 52.23 52.32 52.54 52.82 52.83 52.81 52.84 52.72 52.30 51.90 52.29 53.17 52.06 44.11 48.05 59.23 58.52 58.73 57.41 52.22 53.61 54.23 51.47 46.03 48.24 47.42 45.28 44.12 48.36 49.00 51.09 51.37 50.52 50.13 49.95 48.58 46.80 58.12 60.66 63.46 65.23 65.25
50.65 50.94 51.13 51.35 51.37 51.36 51.56 52.08 51.89 52.09 52.26 52.60 52.26 51.84 52.53 47.05 30.45 52.80 57.59 56.11 54.87 53.48 51.71 51.44 50.95 46.24 43.76 43.78 47.91 43.73 48.93 49.76 50.39 51.71 50.45 49.36 51.61 50.16 49.55 50.94 58.34 64.36 65.26 65.53 65.01
49.64 49.79 50.02 50.27 50.66 50.70 50.46 50.67 50.88 51.08 51.43 51.82 52.56 51.68 46.52 38.37 39.59 47.72 53.33 51.32 49.79 48.26 47.97 46.47 48.25 46.37 42.50 44.76 46.18 45.56 47.52 50.25 51.25 51.11 50.96 51.68 49.95 50.35 50.22 51.48 53.89 64.82 65.12 64.85 65.30
48.60 48.86 48.88 49.22 49.76 49.89 50.20 50.10 50.18 50.14 50.55 51.21 51.87 51.83 42.31 33.76 46.41 47.24 47.64 47.46 47.36 46.00 45.26 47.39 47.18 48.78 45.57 44.89 44.66 48.15 48.74 49.28 50.95 50.55 50.95 49.68 50.06 48.60 51.90 52.29 52.60 62.60 63.59 64.22 64.80
48.17 48.06 48.12 48.14 48.46 49.00 49.22 49.25 49.36 49.35 49.73 50.28 51.05 49.15 42.95 37.82 45.59 46.51 46.70 46.17 46.84 46.31 42.63 47.05 48.49 45.29 45.47 43.84 48.10 48.17 45.09 47.78 49.16 49.86 49.59 50.58 46.86 47.08 51.72 52.91 52.45 56.24 64.27 64.26 64.69
47.66 47.66 47.65 47.68 47.68 48.03 48.16 49.11 49.51 49.18 49.35 50.17 50.77 46.87 37.54 46.61 45.51 45.43 45.95 45.54 48.14 49.05 46.38 47.85 48.83 46.53 45.43 46.96 45.81 43.90 43.78 40.31 47.61 48.89 50.16 47.68 43.18 50.54 52.86 51.52 50.27 51.34 58.01 64.46 65.05
47.68 47.59 47.54 48.38 48.02 48.22 48.60 48.69 49.39 50.23 50.72 49.88 46.60 42.77 36.43 48.32 43.44 45.35 45.94 45.64 48.44 49.69 50.40 50.90 50.58 46.53 45.88 41.49 38.73 39.88 36.30 39.47 42.98 49.02 48.54 46.39 44.16 49.78 51.81 51.29 50.69 50.71 49.50 60.61 63.23
47.70 47.83 47.83 48.19 48.61 48.56 48.46 48.92 49.18 49.69 48.70 48.73 47.12 39.52 41.58 38.51 42.55 46.19 49.38 49.87 47.12 46.24 42.59 46.11 45.59 42.57 43.05 40.61 32.23 34.46 36.16 39.80 40.54 45.65 46.98 45.38 45.13 49.14 50.90 50.75 50.62 49.99 49.98 48.75 56.87
47.23 47.26 47.85 48.12 48.26 48.26 46.55 41.32 40.06 38.39 40.57 37.54 39.14 39.29 41.64 44.70 46.70 44.79 49.43 46.91 44.28 41.77 34.76 39.05 39.94 37.59 40.27 42.54 42.19 40.87 39.40 38.57 42.34 45.22 43.74 44.18 44.79 47.31 49.26 50.50 50.74 50.11 50.58 49.74 49.09
47.63 47.19 47.31 47.53 48.17 48.44 42.61 38.28 41.88 42.07 34.83 40.51 40.70 40.74 43.07 44.03 38.60 41.71 47.56 39.43 37.99 32.80 36.38 33.44 31.86 38.00 42.21 43.22 42.54 40.54 38.78 38.61 42.44 45.36 45.44 43.33 43.73 47.40 49.23 49.36 51.47 51.52 49.65 51.05 51.97
47.64 47.53 47.43 47.84 48.04 40.42 37.12 39.79 44.10 43.06 31.49 34.91 38.62 38.42 39.76 42.01 37.85 38.22 42.62 40.05 35.96 32.84 32.84 29.53 32.63 39.05 37.08 37.38 38.38 40.37 37.85 38.88 39.37 43.67 45.80 43.82 41.32 43.66 48.23 50.33 50.66 52.56 52.79 52.08 51.87
47.88 47.67 48.29 48.08 38.19 38.28 36.79 42.25 41.97 42.26 21.35 27.95 36.50 41.10 42.54 40.44 35.49 43.39 43.46 39.03 36.66 31.95 33.37 32.46 36.59 34.91 36.65 34.56 36.92 34.12 43.17 41.96 40.63 39.76 36.00 44.22 33.91 42.25 45.79 46.92 49.41 50.38 51.85 52.34 51.01
47.39 47.48 48.18 47.39 38.00 36.35 39.82 40.73 42.52 38.08 1.94 31.77 37.00 46.28 42.45 38.59 39.21 40.20 45.24 40.58 33.91 33.75 34.17 30.41 34.79 35.24 33.85 34.95 37.41 35.32 44.26 43.80 43.30 39.81 38.83 40.02 37.39 40.64 45.79 44.44 47.47 50.03 51.41 52.42 51.70
47.05 47.07 47.44 41.65 38.16 39.32 40.14 40.82 38.05 15.78 4.91 29.29 35.22 33.05 33.43 37.18 37.81 39.58 39.61 42.69 40.89 35.80 35.05 33.48 38.34 35.63 35.90 40.21 39.69 40.67 40.13 40.93 41.52 40.75 33.20 38.35 38.26 37.69 41.99 45.02 47.75 50.27 51.32 51.12 53.26
46.65 46.91 45.22 43.63 36.02 39.31 40.37 34.82 14.82 6.41 27.99 27.61 28.62 31.28 31.83 31.52 32.98 34.74 34.10 32.55 29.71 25.99 22.65 30.46 31.97 35.86 36.94 37.08 41.62 40.59 37.49 31.41 30.44 30.73 30.78 40.28 37.64 39.81 45.40 47.60 49.22 49.43 50.87 51.94 52.24
46.50 46.76 43.52 42.23 41.18 40.55 36.22 21.19 7.18 19.28 24.75 31.72 29.91 30.18 27.92 31.85 31.90 32.78 31.25 28.79 32.86 31.09 24.74 23.29 21.02 31.81 36.28 35.25 37.00 38.66 36.91 31.47 26.65 28.53 31.78 39.50 33.93 39.16 46.95 47.22 50.07 49.76 49.27 50.96 51.22
45.73 37.99 36.18 38.70 41.36 41.21 28.74 8.64 11.09 22.33 29.60 27.47 29.05 25.75 26.52 29.87 30.28 29.71 26.91 30.06 31.32 32.63 21.79 21.46 20.98 34.74 35.98 39.20 39.19 35.57 35.24 39.81 33.36 34.39 31.89 34.65 37.42 44.04 46.25 46.60 48.64 47.01 49.47 49.14 48.88
36.83 34.45 34.45 40.14 42.08 37.93 27.19 17.96 23.72 31.27 31.10 30.76 23.88 27.15 23.02 25.45 26.59 27.26 24.26 32.05 32.35 34.11 32.47 27.29 22.59 31.78 34.69 40.38 40.34 38.75 40.08 32.42 33.82 26.21 25.99 32.28 34.70 36.04 41.60 44.18 46.57 46.37 46.73 47.32 49.64
34.17 28.76 35.86 45.26 40.82 30.34 16.50 16.63 28.52 33.65 32.98 28.82 26.18 25.07 26.37 26.67 25.82 26.13 27.48 32.26 34.50 33.41 34.04 31.47 27.08 27.20 32.18 34.71 34.13 35.27 35.10 36.19 35.66 33.30 28.29 28.79 31.92 43.76 42.94 44.42 45.86 47.88 49.45 49.81 50.75
32.11 20.44 36.27 38.45 21.67 27.10 15.42 27.88 33.69 30.92 33.32 31.70 31.31 29.52 27.72 27.31 25.59 25.81 26.67 30.72 37.02 35.18 29.08 29.27 17.95 22.79 26.65 33.31 35.41 38.83 35.91 36.21 30.70 28.55 34.02 33.79 31.47 44.66 44.98 45.65 46.84 47.06 49.76 51.26 52.41
24.79 26.94 36.32 35.45 12.64 11.19 28.68 29.61 30.37 29.62 29.72 29.22 28.17 30.17 30.18 26.84 23.66 28.92 29.41 33.98 36.43 34.37 31.51 31.86 20.15 12.26 22.90 28.89 30.48 29.53 31.32 31.76 31.56 33.01 33.36 30.09 31.34 45.36 46.68 46.98 47.27 45.26 46.23 47.08 49.35
27.00 21.80 24.05 28.57 27.75 25.46 24.59 25.13 26.11 31.96 29.82 30.50 28.81 29.85 27.09 25.46 29.24 26.26 27.72 32.45 34.22 35.18 38.61 36.11 25.96 16.51 15.13 21.73 26.63 25.45 28.07 30.64 30.05 28.13 30.71 33.35 35.80 39.88 41.49 45.24 45.71 46.13 46.24 46.66 46.84
30.03 23.21 25.28 15.49 18.10 24.52 25.88 26.13 24.28 24.07 29.28 30.10 26.57 26.58 25.70 21.86 23.73 25.67 28.29 29.01 32.38 35.84 34.04 32.05 23.34 20.73 24.44 28.86 28.86 27.67 27.87 28.97 27.77 29.59 26.48 31.91 32.26 37.22 38.28 45.80 45.82 46.49 46.56 46.09 45.49
22.55 22.67 25.17 23.12 27.98 25.66 25.15 23.20 24.48 25.90 27.00 25.48 24.52 26.56 26.27 20.59 24.20 22.18 26.21 26.12 26.27 32.66 30.47 32.46 25.10 27.24 24.40 29.58 29.73 27.45 29.60 29.77 29.44 30.01 30.41 31.04 31.14 38.69 42.47 44.01 45.47 44.66 45.47 45.02 44.77
32.55 33.07 28.46 24.79 25.58 24.63 20.84 24.95 26.22 27.95 29.02 29.94 27.78 25.66 23.78 25.45 29.12 30.50 30.80 29.92 29.35 27.61 27.66 27.90 24.54 21.23 17.54 27.41 26.30 19.91 27.17 28.87 30.01 32.22 32.01 28.91 34.44 38.23 38.09 39.73 40.56 43.60 45.38 44.54 44.55
MSLP
1021.31 1020.92 1020.70 1020.53 1020.58 1020.46 1020.31 1019.90 1019.63 1019.16 1018.83 1018.44 1018.19 1017.95 1017.34 1016.93 1016.35 1015.55 1014.35 1013.49 1013.19 1012.43 1012.89 1012.42 1012.11 1011.80 1011.51 1011.34 1011.22 1011.23 1011.65 1010.44 1009.23 1008.66 1005.83 1005.53 1005.36 1004.03 1003.38 1002.46 1002.08 1002.50 1002.88 1003.17 1005.13
1021.36 1021.08 1020.92 1020.69 1020.68 1020.46 1020.34 1019.96 1019.62 1019.10 1018.73 1018.56 1018.24 1017.64 1017.27 1016.84 1016.11 1014.79 1012.94 1012.82 1013.41 1013.27 1013.07 1013.09 1012.46 1012.53 1011.94 1011.10 1010.92 1010.81 1009.96 1008.28 1007.72 1007.08 1006.10 1005.54 1005.41 1004.47 1004.27 1003.32 1002.69 1003.03 1003.21 1004.08 1005.24
1021.40 1021.23 1020.95 1020.78 1020.67 1020.59 1020.44 1020.15 1019.70 1019.11 1018.73 1018.36 1018.04 1017.72 1017.45 1016.90 1015.84 1014.19 1012.69 1013.28 1013.34 1013.13 1012.83 1012.71 1012.89 1013.17 1012.13 1011.00 1010.30 1009.68 1008.11 1008.17 1007.14 1006.43 1006.53 1005.65 1005.06 1004.87 1004.30 1003.16 1002.22 1002.94 1003.83 1004.47 1005.26
1021.73 1021.47 1021.11 1020.80 1020.61 1020.44 1020.18 1019.87 1019.40 1019.05 1018.80 1018.52 1018.23 1017.65 1017.14 1016.93 1015.69 1013.12 1012.92 1013.42 1013.41 1012.95 1012.41 1012.20 1012.54 1012.76 1012.05 1010.66 1009.66 1009.42 1007.69 1007.60 1006.65 1006.19 1006.18 1005.32 1004.70 1004.15 1004.07 1003.22 1002.65 1001.74 1002.44 1003.73 1004.68
1021.98 1021.66 1021.40 1021.18 1020.97 1020.63 1020.22 1019.74 1019.29 1018.81 1018.46 1018.12 1017.83 1017.64 1017.52 1017.18 1015.47 1013.09 1013.27 1013.37 1013.07 1013.06 1013.01 1012.61 1012.09 1011.81 1011.27 1010.24 1009.59 1008.60 1007.27 1006.92 1006.35 1005.87 1005.10 1005.05 1004.19 1003.77 1003.21 1002.86 1002.74 1002.24 1002.71 1003.42 1004.05
1022.12 1021.94 1021.82 1021.60 1021.30 1020.91 1020.40 1019.87 1019.30 1018.84 1018.49 1018.04 1017.72 1017.72 1017.91 1016.90 1014.19 1013.42 1013.39 1013.35 1013.47 1013.33 1012.79 1012.77 1012.24 1011.41 1010.80 1009.99 1009.42 1007.18 1006.88 1006.57 1006.05 1005.00 1004.46 1004.69 1003.52 1003.83 1002.07 1002.10 1001.98 1002.53 1002.50 1003.10 1003.85
1022.29 1022.08 1021.86 1021.54 1021.16 1020.67 1020.13 1019.51 1018.90 1018.37 1018.15 1018.02 1017.83 1017.79 1017.42 1015.44 1014.13 1013.70 1013.82 1013.47 1013.35 1013.28 1012.60 1012.16 1012.15 1011.98 1011.27 1009.95 1008.99 1007.81 1007.48 1006.40 1005.18 1004.36 1003.60 1004.28 1003.29 1002.34 1001.78 1001.90 1001.62 1002.14 1002.20 1002.51 1003.02
1022.41 1022.11 1021.77 1021.42 1021.01 1020.43 1019.76 1019.00 1018.05 1017.45 1017.39 1017.42 1017.43 1017.65 1016.16 1014.44 1013.85 1013.73 1013.55 1013.26 1012.88 1012.45 1012.35 1011.98 1011.75 1011.52 1011.41 1010.64 1009.27 1007.83 1007.58 1006.16 1003.47 1004.04 1002.48 1004.19 1001.69 1001.42 1001.46 1001.45 1001.46 1001.52 1002.13 1002.30 1002.49
1022.33 1021.97 1021.64 1021.29 1020.74 1020.04 1019.25 1018.20 1016.92 1016.21 1016.24 1016.83 1017.32 1017.48 1015.36 1013.67 1013.46 1012.84 1013.19 1013.20 1012.62 1011.88 1011.71 1011.40 1010.80 1010.89 1011.01 1010.69 1010.09 1008.42 1006.22 1004.82 1003.28 1002.84 1002.41 1002.93 1001.87 1000.77 1000.94 1000.87 1000.69 1000.70 1001.40 1001.75 1002.08
1022.26 1021.92 1021.52 1021.05 1020.44 1019.79 1018.78 1017.45 1016.26 1015.77 1015.96 1016.37 1016.64 1017.04 1014.79 1013.36 1012.64 1012.64 1012.76 1012.87 1012.55 1011.78 1011.03 1010.79 1010.62 1010.24 1009.93 1010.15 1008.09 1006.80 1005.53 1003.71 1001.60 1001.47 1002.14 1001.67 1001.24 1000.77 1000.45 1000.27 999.99 1000.00 1000.15 1001.01 1001.34
1022.16 1021.86 1021.44 1020.89 1020.20 1019.46 1018.61 1017.74 1017.17 1016.61 1016.51 1016.44 1015.49 1014.72 1013.17 1012.53 1012.51 1012.43 1012.47 1012.60 1012.38 1012.16 1011.88 1011.17 1010.26 1008.90 1008.36 1008.63 1008.21 1006.83 1004.91 1003.24 1000.90 1001.97 1001.83 1000.87 1001.19 1000.65 1000.05 999.66 999.25 999.36 999.62 999.78 1000.29
1022.04 1021.79 1021.34 1020.70 1019.90 1019.31 1018.91 1018.65 1018.32 1018.33 1016.44 1014.62 1013.77 1013.63 1012.64 1013.05 1012.52 1010.92 1012.13 1012.63 1012.10 1011.91 1012.04 1011.86 1010.38 1009.74 1009.04 1008.50 1008.00 1007.05 1005.35 1002.99 1001.58 1001.74 1001.32 1000.49 1000.08 1000.00 999.56 998.74 998.29 998.42 998.68 998.90 999.20
1021.85 1021.64 1021.20 1020.58 1019.66 1019.29 1019.48 1018.73 1018.14 1017.79 1017.23 1013.48 1012.64 1012.25 1011.44 1011.52 1012.18 1010.53 1011.50 1011.48 1011.80 1011.72 1011.76 1011.72 1009.06 1009.84 1009.97 1008.34 1007.87 1006.22 1004.66 1002.56 1001.32 1001.34 1000.63 1000.77 1000.07 999.63 998.47 998.16 997.90 997.40 997.22 997.73 998.03
1021.62 1021.42 1021.22 1020.62 1020.18 1019.99 1019.08 1018.20 1017.88 1017.80 1017.35 1014.23 1011.90 1010.95 1010.98 1011.14 1011.28 1010.54 1010.61 1010.80 1011.33 1011.07 1011.25 1010.51 1009.24 1008.88 1008.52 1007.82 1007.67 1006.52 1004.26 1002.74 1002.42 1002.16 1000.44 999.64 998.61 998.25 998.19 997.55 997.21 996.47 996.39 996.68 997.20
1021.46 1021.18 1021.03 1020.77 1020.93 1020.35 1018.88 1018.27 1017.94 1017.94 1017.26 1013.19 1011.26 1010.42 1010.42 1010.97 1010.47 1011.39 1011.29 1011.18 1010.85 1010.55 1011.00 1009.04 1008.61 1008.16 1007.24 1006.42 1006.72 1006.15 1004.77 1003.17 1002.53 1001.78 1000.81 999.47 998.84 996.96 996.92 996.70 995.45 995.23 995.31 995.73 996.28
1021.25 1020.95 1020.70 1020.71 1020.71 1019.38 1018.77 1018.42 1018.36 1018.94 1016.58 1013.15 1011.65 1011.37 1010.93 1011.02 1011.48 1011.15 1011.43 1011.56 1011.20 1010.99 1010.36 1009.07 1008.76 1008.78 1006.93 1005.50 1005.31 1006.26 1005.48 1003.78 1002.52 1001.20 999.43 998.55 998.34 995.66 995.25 994.01 994.19 994.49 994.54 994.81 995.30
1021.02 1020.63 1020.44 1020.20 1019.67 1018.76 1018.82 1019.17 1019.76 1019.11 1016.10 1014.05 1012.77 1012.50 1011.83 1011.65 1011.17 1011.32 1011.32 1011.64 1011.87 1011.36 1010.12 1008.57 1007.07 1006.82 1006.49 1004.92 1004.19 1004.79 1004.76 1003.05 1001.84 1000.24 998.38 997.58 997.48 993.20 993.42 992.76 993.12 993.46 993.69 993.96 994.46
1020.63 1020.11 1019.49 1019.01 1018.48 1018.97 1019.41 1020.23 1020.45 1018.47 1016.46 1014.83 1013.88 1012.99 1012.40 1012.09 1011.57 1011.36 1011.29 1011.53 1011.54 1011.85 1011.03 1009.63 1007.00 1006.20 1005.48 1005.12 1002.98 1003.24 1002.68 1001.75 1000.67 999.59 998.56 996.76 995.83 991.55 992.56 992.79 992.65 992.83 993.10 993.48 993.76
1020.39 1020.02 1019.61 1018.18 1018.13 1018.96 1020.09 1020.65 1019.63 1018.04 1016.50 1015.56 1014.40 1013.55 1013.03 1012.90 1012.82 1011.87 1011.68 1011.33 1011.76 1012.02 1012.02 1010.37 1007.76 1005.37 1004.54 1003.75 1003.58 1002.70 1001.69 1001.94 1002.04 1000.91 999.04 996.65 995.77 992.04 993.53 992.81 992.71 992.84 993.08 993.12 993.11
1020.96 1020.52 1019.40 1017.79 1017.92 1018.94 1020.26 1020.27 1018.90 1017.31 1016.45 1015.67 1015.17 1014.63 1014.12 1013.36 1013.26 1012.44 1011.65 1011.53 1011.63 1011.68 1011.83 1010.93 1008.95 1006.46 1004.49 1003.66 1003.12 1002.69 1002.86 1002.57 1001.84 1000.81 999.24 996.98 995.15 992.12 991.94 991.59 992.45 993.08 993.25 993.20 993.08
1021.01 1020.66 1018.50 1017.75 1018.00 1019.82 1020.66 1020.02 1018.21 1016.92 1016.35 1015.79 1015.18 1014.82 1014.38 1014.12 1013.79 1012.73 1011.50 1011.10 1011.22 1011.00 1011.42 1010.92 1010.04 1006.82 1006.04 1004.36 1003.92 1003.86 1003.02 1002.91 1002.24 1001.30 999.71 997.67 995.11 991.64 992.94 993.07 993.23 993.08 993.13 993.15 993.04
1021.18 1020.91 1018.35 1018.28 1019.54 1020.33 1020.35 1019.05 1017.97 1016.87 1016.03 1015.41 1015.06 1014.86 1014.49 1014.28 1013.60 1012.96 1011.66 1011.03 1010.46 1010.58 1010.68 1010.44 1010.12 1008.58 1005.98 1005.73 1005.24 1003.14 1003.16 1002.85 1002.28 1001.72 1000.02 998.34 995.55 993.11 992.96 993.32 993.26 993.46 992.98 992.29 992.30
1021.65 1020.79 1018.54 1018.65 1020.13 1020.75 1019.83 1018.86 1017.97 1016.83 1016.12 1015.53 1015.26 1014.98 1014.69 1014.29 1014.01 1012.89 1012.07 1011.00 1010.50 1010.57 1010.37 1010.19 1009.88 1009.35 1006.87 1006.56 1006.22 1006.03 1005.65 1004.64 1003.17 1002.06 1000.13 999.20 996.61 994.56 994.83 994.63 994.98 994.71 994.39 993.80 993.13
1021.84 1021.62 1020.34 1019.83 1020.08 1020.09 1019.85 1018.87 1017.86 1016.82 1016.21 1015.60 1015.30 1015.00 1014.84 1014.59 1014.33 1013.52 1012.63 1011.47 1011.01 1010.25 1009.88 1010.11 1010.03 1010.11 1009.80 1008.89 1008.04 1006.71 1005.92 1005.04 1004.07 1002.37 1001.10 999.60 997.75 996.84 996.39 996.43 996.53 995.87 995.34 994.62 994.26
1021.78 1021.67 1020.98 1020.89 1020.67 1020.32 1019.84 1019.08 1018.09 1017.11 1016.19 1015.61 1015.29 1015.26 1015.25 1014.91 1014.21 1013.46 1013.09 1012.15 1011.13 1010.68 1010.82 1010.40 1010.35 1009.88 1009.29 1008.76 1008.00 1006.92 1006.00 1005.45 1004.52 1003.32 1002.01 1000.16 999.15 997.90 997.63 997.91 998.03 997.18 996.49 995.60 996.28
1021.46 1021.68 1020.90 1020.72 1020.25 1019.92 1019.26 1018.64 1017.93 1017.01 1016.61 1015.96 1015.68 1015.26 1015.08 1015.15 1014.65 1013.83 1013.45 1013.05 1012.11 1010.80 1011.12 1011.03 1009.90 1009.81 1008.82 1007.82 1006.88 1006.40 1005.26 1004.40 1003.68 1002.98 1002.39 1001.33 999.93 998.96 998.51 998.34 997.90 997.58 998.11 997.27 997.52
1021.02 1020.94 1020.96 1020.16 1019.79 1019.64 1019.00 1018.15 1017.50 1017.11 1016.28 1015.92 1015.64 1015.35 1014.86 1014.47 1013.99 1013.59 1013.08 1012.51 1011.86 1011.26 1010.82 1011.23 1010.85 1010.48 1009.19 1008.45 1007.68 1006.02 1003.79 1003.12 1002.80 1002.48 1001.43 1000.75 1000.28 1000.04 999.45 999.03 998.75 998.32 998.12 997.97 998.59
Wind_Speed
15 15 13 13 12 12 13 13 13 13 14 15 16 17 19 21 21 10 8 10 11 15 9 13 10 9 4 6 6 3 4 13 18 13 19 8 8 12 8 4 2 7 7 14 20
16 16 16 15 15 13 12 13 13 14 15 15 16 17 19 21 16 10 11 12 6 13 9 9 12 11 5 4 5 8 10 21 6 17 18 16 7 16 9 14 5 9 14 22 23
18 17 17 17 17 16 16 15 15 15 15 16 16 16 17 18 6 3 22 11 6 12 4 9 11 7 7 5 7 6 22 14 16 18 14 20 19 4 7 9 8 17 22 21 23
17 17 18 18 18 18 18 17 17 16 16 16 16 16 18 4 4 4 18 17 19 13 6 4 7 5 6 8 7 9 15 17 21 18 14 19 16 16 6 19 5 25 29 25 24
16 16 17 17 17 18 18 19 20 20 20 18 17 15 6 3 10 6 17 18 12 9 10 8 12 9 14 7 4 14 18 14 16 18 22 18 22 21 18 12 0 18 22 24 22
14 14 15 16 16 17 17 18 19 20 19 18 16 13 2 14 6 9 14 12 9 9 5 6 5 7 10 13 15 6 10 15 17 22 22 20 23 7 22 10 7 17 21 21 20
13 14 14 16 17 18 19 21 21 21 19 17 14 5 8 20 5 12 14 9 11 11 8 8 6 6 12 9 17 16 20 16 20 17 19 12 20 19 19 11 8 10 18 22 23
14 15 16 17 18 20 21 23 24 25 20 18 12 2 12 7 6 10 9 10 7 7 11 14 11 9 7 10 10 11 11 18 27 20 24 9 25 23 14 14 12 10 12 19 21
15 16 17 16 18 20 22 25 28 25 12 8 3 3 11 7 4 8 7 7 9 5 5 14 9 7 7 9 8 10 16 25 26 23 16 15 18 21 12 14 14 9 10 16 17
15 17 18 18 19 20 23 25 21 7 5 6 2 4 5 6 4 2 4 5 5 9 11 11 8 9 11 11 20 17 25 20 31 22 20 20 19 17 12 14 13 10 9 11 17
16 18 19 20 21 23 13 6 8 5 7 9 11 9 16 8 7 10 5 2 3 0 4 8 9 15 27 20 26 24 22 31 24 10 9 21 17 17 15 15 15 11 11 9 12
15 17 19 22 23 20 4 4 10 6 12 16 24 23 25 15 18 24 8 5 5 13 7 6 18 18 17 15 22 29 26 26 19 15 19 13 19 18 19 14 19 16 12 14 14
14 16 19 21 25 4 4 3 5 5 5 12 5 7 8 9 12 19 10 7 13 13 11 14 22 15 24 20 19 26 31 30 26 13 18 16 20 12 18 20 14 20 17 17 17
15 16 15 20 6 6 6 7 9 1 4 9 2 1 13 5 5 6 6 11 5 12 11 15 20 24 24 13 12 13 30 31 26 14 19 18 14 25 18 17 23 20 20 20 13
15 16 15 11 4 4 7 8 10 4 5 7 3 1 8 5 6 9 9 10 10 14 6 9 10 17 25 30 24 9 18 25 22 21 21 15 14 14 22 20 25 24 24 21 16
15 16 17 4 2 8 6 8 4 8 8 5 8 14 17 8 2 6 1 3 4 10 14 24 16 8 6 20 24 18 23 19 14 17 22 26 18 15 17 32 27 23 21 17 21
15 17 15 4 6 0 5 5 7 4 7 6 12 15 13 5 8 4 5 3 1 6 5 10 19 13 13 10 12 20 13 6 11 10 11 24 24 27 26 22 24 22 21 20 17
16 20 7 6 6 1 4 7 5 5 6 10 15 18 6 3 8 5 4 4 4 3 6 6 10 12 13 12 8 18 20 4 7 10 9 19 22 32 32 8 23 14 10 15 18
14 4 5 6 4 4 6 4 8 5 6 9 16 7 5 16 10 6 3 3 3 2 2 5 8 4 10 11 9 2 15 13 5 4 5 6 5 35 23 22 25 12 17 14 11
3 4 5 4 6 5 4 5 5 3 10 12 4 6 14 17 11 9 3 2 1 7 3 5 11 4 14 14 13 3 7 7 10 7 5 4 18 22 20 29 16 7 8 7 7
2 4 6 3 5 5 4 7 6 7 11 5 13 15 12 6 13 5 6 1 4 4 6 4 4 10 6 7 7 6 6 6 1 5 5 3 8 23 9 6 14 17 15 12 13
2 3 4 4 5 0 3 4 8 12 13 4 6 5 9 15 9 9 6 6 7 4 4 6 4 6 8 2 15 3 3 9 4 6 5 5 9 6 2 2 5 5 12 17 20
0 4 5 6 2 3 4 7 6 5 7 6 4 9 10 9 7 8 11 13 10 4 4 2 5 5 4 3 7 5 5 6 4 2 4 8 7 5 11 12 9 8 11 11 13
2 4 6 4 1 3 3 5 3 5 9 7 8 4 7 7 6 10 8 7 16 10 16 6 3 6 3 5 5 8 11 9 4 3 5 6 12 3 11 11 12 11 10 15 18
1 5 6 4 5 2 1 5 10 7 4 4 4 5 2 4 8 4 10 14 10 11 11 3 4 2 5 9 11 15 14 11 10 5 5 5 6 9 14 5 5 11 13 18 20
3 1 4 3 5 6 5 3 9 10 4 9 7 12 6 4 7 12 12 9 7 5 6 4 4 3 4 6 9 16 19 14 13 15 13 12 9 6 9 8 11 12 13 14 15
2 3 3 6 2 1 4 5 5 10 8 8 9 9 8 11 9 11 10 10 14 16 15 5 2 4 5 4 8 8 13 16 12 14 11 7 5 11 13 12 11 8 10 13 13
Wind_Direction
24 23 16 14 1 354 351 353 351 348 343 337 334 331 330 326 318 299 241 217 209 250 313 307 307 297 247 223 190 148 197 234 229 227 243 293 321 300 290 256 123 173 161 147 136
21 18 13 11 5 353 345 343 340 338 337 333 329 328 328 325 313 267 238 230 328 342 309 295 298 325 291 268 201 189 214 233 227 238 266 289 299 300 332 287 35 71 104 123 135
15 11 8 4 1 357 353 347 338 334 329 326 326 326 328 329 309 172 42 26 356 324 236 244 263 287 265 195 203 224 239 240 251 253 267 278 276 266 289 287 183 146 144 147 148
11 8 3 359 354 350 346 342 337 331 327 321 321 327 330 325 303 199 0 19 356 339 337 225 195 196 246 226 196 253 252 234 256 263 262 264 279 285 269 265 237 153 159 161 164
6 4 359 353 347 341 337 333 329 325 324 324 321 328 4 359 256 312 335 345 337 352 331 354 206 191 226 237 219 240 253 257 253 256 255 268 265 261 272 261 121 165 159 169 174
1 358 352 344 340 334 328 323 317 313 312 313 316 319 318 270 246 296 333 329 335 327 283 305 329 274 277 250 236 261 235 252 260 249 252 251 260 239 262 263 241 179 173 173 173
356 349 345 340 335 329 323 316 306 299 298 296 296 294 247 250 251 300 311 296 308 285 271 236 276 294 339 274 262 246 260 270 253 249 252 240 266 245 254 254 248 166 180 176 179
348 346 343 338 333 327 321 311 300 293 288 285 271 241 260 262 260 281 277 288 273 258 247 260 252 264 244 288 303 232 226 241 247 244 252 159 257 251 247 246 231 183 179 185 185
348 345 341 335 329 324 320 310 303 301 283 227 246 181 266 292 233 254 198 255 294 280 259 255 241 219 256 246 262 246 234 220 245 229 237 187 242 257 237 234 235 217 175 187 195
345 340 338 334 327 326 318 307 294 322 100 152 191 229 249 251 241 207 189 243 277 312 335 198 220 227 197 215 210 213 223 227 228 220 227 233 234 256 249 227 227 221 221 179 196
344 340 336 332 329 327 327 350 15 339 34 236 249 246 278 239 316 252 188 194 251 245 319 325 258 220 216 210 241 233 231 228 242 203 210 236 237 236 254 231 232 221 223 228 190
340 338 334 332 326 321 346 40 4 245 297 260 252 256 265 274 277 269 156 205 187 268 276 307 253 243 272 224 243 237 235 238 251 225 212 222 228 223 238 237 228 217 221 221 225
334 335 333 333 325 37 297 349 322 344 281 305 244 235 263 201 236 278 171 211 243 259 244 245 255 255 240 267 246 245 228 233 227 210 231 225 248 237 233 235 242 233 221 220 213
328 329 333 338 22 327 304 305 333 330 16 283 127 340 21 340 239 340 328 202 200 245 244 252 268 239 234 234 221 278 226 239 240 228 229 197 239 226 228 230 227 235 227 228 217
328 324 325 330 260 308 268 333 313 62 22 255 7 75 330 281 244 349 5 339 262 233 192 229 282 249 218 225 235 249 281 234 240 222 244 226 230 225 214 225 226 223 232 228 219
323 322 324 345 301 238 305 301 47 48 259 302 50 355 352 29 140 271 282 229 310 283 249 257 266 262 314 244 226 231 265 282 271 228 224 221 229 228 207 216 223 225 223 223 224
321 315 309 255 237 329 348 29 47 136 301 350 345 351 331 317 336 280 304 290 9 304 277 272 242 227 218 265 202 211 206 212 207 204 221 214 215 237 210 223 216 216 224 223 209
320 312 260 219 230 151 43 49 95 253 274 341 347 327 301 286 324 280 261 245 195 251 293 334 319 173 193 228 204 216 208 203 213 192 189 218 208 242 226 204 228 227 212 209 203
330 307 297 265 211 131 77 60 210 236 341 339 323 301 323 333 326 328 253 267 48 302 313 320 273 327 254 194 198 213 219 196 337 334 261 181 223 253 240 233 239 229 224 220 214
335 333 281 268 107 80 82 249 248 295 306 319 299 328 318 316 319 331 295 280 249 231 152 287 290 30 315 184 211 200 144 174 208 202 227 255 205 236 193 223 226 234 249 265 272
32 350 259 15 70 55 171 231 272 289 335 317 292 292 300 356 327 291 269 181 195 287 196 269 252 288 354 203 234 196 220 189 224 209 225 206 240 237 231 192 224 247 248 252 257
359 321 273 46 45 266 195 221 317 309 309 345 346 333 311 310 304 300 286 322 213 255 248 221 211 277 277 195 337 189 231 205 164 186 222 228 267 305 150 227 205 244 258 245 240
243 257 308 100 140 288 272 283 280 291 332 324 291 309 323 323 325 297 336 317 348 307 300 309 284 325 341 14 35 1 350 313 291 309 187 191 251 144 52 46 25 47 16 2 354
65 329 316 38 246 204 274 284 290 318 296 301 294 316 341 330 328 297 312 313 325 283 271 274 267 172 237 232 290 308 316 312 303 239 209 216 268 27 32 16 3 3 19 22 3
143 241 200 283 312 282 325 281 291 297 244 301 305 328 347 305 313 335 330 324 311 17 1 272 265 275 253 255 258 263 272 286 297 288 260 45 288 301 342 325 343 16 7 29 8
160 203 334 260 274 268 272 247 278 285 267 308 303 308 279 203 238 288 294 295 272 302 354 301 310 295 275 266 272 266 265 261 261 272 265 270 281 290 352 358 2 21 348 20 5
269 277 141 250 240 175 229 238 268 308 292 299 305 315 303 279 278 278 270 261 263 274 284 257 260 343 266 292 310 263 247 234 246 238 217 232 272 25 325 323 331 359 358 353 339